Regional Weather Roundup
Issued by NWS Newport/Morehead, NC

Current Version | Previous Version | Graphics & Text | Print | Product List | Glossary Off
Versions: 1 2 3 4 5 6 7 8 9 10 11 12 13 14 15 16 17 18 19 20 21 22 23 24 25 26 27 28 29 30 31 32 33 34 35 36 37 38 39 40 41 42 43 44 45 46 47 48 49 50

000
ASUS42 KMHX 221110
RWRMHX
WEATHER ROUNDUP FOR EASTERN NORTH CAROLINA
NATIONAL WEATHER SERVICE NEWPORT/MOREHEAD CITY NC
700 AM EDT FRI AUG 22 2014

NOTE: "FAIR" INDICATES FEW OR NO CLOUDS BELOW 12,000 FEET
WITH NO SIGNIFICANT WEATHER AND/OR OBSTRUCTIONS TO VISIBILITY

NCZ015>017-031-032-045>047-102-103-221200-
NORTH COAST

CITY           SKY/WX    TMP DP  RH WIND       PRES   REMARKS
EDENTON        MOCLDY    74  73  96 CALM      29.98S
ELIZABETH CITY CLOUDY    74  72  93 CALM      29.97F
KITTY HAWK     HVY RAIN  75  72  91 NW6G16    29.97R
MANTEO         DRIZZLE   75  72  88 NW6       29.98S

$$

NCZ045>047-081-094-103-104-221200-
CENTRAL COAST

CITY           SKY/WX    TMP DP  RH WIND       PRES   REMARKS
FRISCO         PTCLDY    80  78  94 W8        29.97R
SWANQUARTER      N/A     75 N/A N/A VRB1      29.94S

$$

NCZ095-097-098-100-101-221200-
SOUTHERN COAST

CITY           SKY/WX    TMP DP  RH WIND       PRES   REMARKS
BEAUFORT       CLEAR     79  73  82 W6        29.99R
CEDAR ISLAND     N/A     79 N/A N/A W9        30.03R
JACKSONVILLE   CLEAR     75  73  93 CALM      29.99R
NEWPORT        NOT AVBL
PINEY ISLAND   MOSUNNY   80  77  90 NW6       29.98R
WILMINGTON     PTCLDY    77  75  93 W5        30.00R


$$

NCZ011>013-027>030-043-044-078>080-089-090>093-098-221200-
COASTAL PLAIN

CITY           SKY/WX    TMP DP  RH WIND       PRES   REMARKS
AHOSKIE        MOCLDY    71  69  95 CALM      29.99R
CLINTON        CLEAR     73  73 100 CALM      30.02R
ELIZABETHTOWN  PTCLDY    77  75  94 CALM      30.00S
GOLDSBORO      PTCLDY    74  74  98 SW1       29.98S
GREENVILLE     PTCLDY    73  73 100 CALM      30.01R FOG
HAVELOCK       CLEAR     74  72  93 W5        30.00R FOG
KENANSVILLE    PTCLDY    72  70  95 CALM      30.02R FOG
KINSTON        PTCLDY    75  72  88 W5        30.00S
NEW BERN       CLEAR     77  72  84 CALM      30.00R
RICHLANDS      CLEAR     72  70  94 CALM      30.00R
ROANOKE RAPIDS NOT AVBL
ROCKY MOUNT    PTCLDY    72  71  97 CALM      30.00R FOG
WASHINGTON     PTCLDY    74  73  94 CALM      29.99S
WHITEVILLE     MOCLDY    76  74  93 CALM      30.00R FOG

$$

AMZ130-135-150-152-154-156-158-170-250-252-270-ANZ085-086-088-633-658-670-221200-
MARINE OBSERVATIONS

STATION/POSITION TIME  TEMP    WIND        PRES    WAVE   SWELL
                       AIR SEA DIR/SP/G            HT/PER HT/PER
                 (UTC) (F)     (DEG/KT/KT) (MB)    (FT/S) (FT/S)
CHESAPEAKE LIGHT 1000   77     150/  7/  7 1014.8
BUOY 44014       1100   76 77  160/  6/  8 1013.6    2/ 6   2/ 6
DUCK             1100   75 78  270/ 16/ 20 1014.7
2E DUCK          1100                        N/A     2/ 6
OREGON INLET     1100   77 83  280/ 18/ 22 1014.8
BUOY 44095       1100      80                N/A     2/ 8
20E OREGON INLET NOT AVBL
HATTERAS CG      1100   82 82  280/ 11/ 13 1015.2
DIAMOND BUOY     1100   82     250/ 10/ 12 1014.5    2/ 8   2/ 8
CAPE LOOKOUT     1100   81     260/  5/  6 1015.4
BEAUFORT LAB     1100   80 82  320/  3/  5 1015.1
30 SE NEW RIVER  1100   82 82  270/ 10/ 12 1015.0    2/ 5   2/ 9
5 SE WRIGHTSVILL 1100   76 82  260/  6/  8   N/A
BUOY 41002       0957   82 82  260/ 12/ 16 1017.6    2/ 8   2/ 8
BUOY 41004       1100   84 84  250/  8/ 10 1015.7    2/ 9   2/ 9

$$



USA.gov is the U.S. government's official web portal to all federal, state and local government web resources and services.